Location: Dittelbrunn
(50.0738°N, 10.2196°E)
Time: 17:30:29
(UTC+00:00)

Cosmos 1092 Rocket - Pass Details

Date: 18 September 2020
Orbit: 955 x 994 km, 82.9° (Epoch: 30 October)

Event Time Altitude Azimuth Distance (km) Brightness Sun altitude
Rises 19:48:13 0° 349° (NNW) 3,647 7.6 -22.5°
Reaches altitude 10° 19:50:43 10° 347° (NNW) 2,698 6.9 -22.8°
Maximum altitude 19:56:51 74° 265° (W) 1,003 4.1 -23.7°
Enters shadow 20:00:15 28° 186° (S) 1,716 5.0 -24.1°
